Location: Devore Heights
(34.2372°N, 117.4156°W)
Time: 22:42:43
(UTC+00:00)

Transit 4A - Pass Details

Date: 15 September 2024
Orbit: 864 x 978 km, 66.8° (Epoch: 13 October)

Event Time Altitude Azimuth Distance (km) Brightness Sun altitude
Rises 09:49:23 0° 193° (SSW) 3,429 - -42.8°
Reaches altitude 10° 09:51:52 10° 189° (S) 2,500 - -42.4°
Maximum altitude 09:57:30 56° 112° (ESE) 1,031 - -41.6°
Exits shadow 10:00:57 24° 43° (NE) 1,749 9.8 -41.1°
Drops below altitude 10° 10:03:15 10° 35° (NE) 2,562 10.8 -40.7°
Sets 10:05:50 0° 32° (NNE) 3,522 11.7 -40.3°
